2003 FH42 = 2016 EL181

Initial reported observation by Table Mountain Observatory, Wrightwood on 2003-03-31.
(Discoverer will be defined when the object is numbered. See this note on how discoverers are determined.)

Orbit

Orbit type: Main Belt

Note: WebGL enabled browser required.

epoch2024-03-31.0
epoch JD2460400.5
perihelion date2021-01-06.48104
perihelion JD2459220.98104
argument of perihelion (°)254.40569
ascending node (°)5.99208
inclination (°)11.22309
eccentricity0.2738544
perihelion distance (AU)1.9198050
Tisserand w.r.t. Jupiter3.3
ΔV w.r.t. Earth (km/sec)9.4
semimajor axis (AU)2.6438294
mean anomaly (°)270.43235
mean daily motion (°/day)0.22927340
aphelion distance (AU)3.368
period (years)4.3
P-vector [x]-0.16873004
P-vector [y]-0.81325135
P-vector [z]-0.55691330
Q-vector [x]0.98545288
Q-vector [y]-0.12753969
Q-vector [z]-0.11232212
absolute magnitude17.15
phase slope0.15
uncertainty0
referenceMPEC 2024-D127
observations used257
oppositions10
arc length (days)7618
first opposition used2003
last opposition used2024
residual rms (arc-secs)0.64
perturbers coarse indicatorM-v
perturbers precise indicator003Ek
first observation date used2003-03-31.0
last observation date used2024-02-07.0
computer nameMPCLINUX
JD of orbit computation2458050.205381
perihelion JD uncertainty (days)6.5348E-05
argument of perihelion uncertainty (°)2.2913E-05
ascending node uncertainty (°)1.7322E-05
inclination uncertainty (°)7.7151E-06
eccentricity uncertainty 5.1340E-08
perihelion distance uncertainty (AU)1.3516E-07
Minimum Orbit Intersection Distances (in AU)
for orbit epoch: 2460400.5, reference: E2024-DC7
Mercury1.45796
Venus1.21309
Earth0.94154
Mars0.48709
Jupiter1.86409
Saturn5.79821
Uranus15.5751
Neptune26.6246

Observations

258 total observations over interval: 2003 03 31.25822 – 2024 02 07.374833
These data are available for download (format description).

Date (UT) J2000 RA J2000 Dec Magn Location Ref
2003 03 31.25822 11 58 30.06 +01 01 27.3 19.5 R 673 – Table Mountain Observatory, Wrightwood MPS 76334
2003 03 31.29282 11 58 27.76 +01 01 28.3   673 – Table Mountain Observatory, Wrightwood MPS 76334
2003 03 31.34583 11 58 24.20 +01 01 30.0   673 – Table Mountain Observatory, Wrightwood MPS 76334
2003 04 01.43576 11 57 13.28 +01 02 03.2 19.5 R 673 – Table Mountain Observatory, Wrightwood MPS 76334
2003 04 01.44549 11 57 12.65 +01 02 03.3   673 – Table Mountain Observatory, Wrightwood MPS 76334
2003 04 01.44884 11 57 12.43 +01 02 03.3   673 – Table Mountain Observatory, Wrightwood MPS 76334
2003 04 08.29086 11 50 06.43 +01 03 21.4 19.5 R 673 – Table Mountain Observatory, Wrightwood MPS 76334
2003 04 08.29572 11 50 06.01 +01 03 21.5   673 – Table Mountain Observatory, Wrightwood MPS 76334
2003 04 08.29919 11 50 05.82 +01 03 21.6   673 – Table Mountain Observatory, Wrightwood MPS 76334
2003 04 08.30255 11 50 05.61 +01 03 21.6   673 – Table Mountain Observatory, Wrightwood MPS 76334
2004 10 04.17421 00 37 36.91 +05 41 25.7 20.4 V 691 – Steward Observatory, Kitt Peak-Spacewatch MPS 692614
2004 10 04.20211 00 37 35.16 +05 41 21.8 20.3 V 691 – Steward Observatory, Kitt Peak-Spacewatch MPS 692614
2004 10 04.22949 00 37 33.46 +05 41 18.4 20.6 V 691 – Steward Observatory, Kitt Peak-Spacewatch MPS 692614
2013 10 02.34619 02 59 57.13 +25 26 19.4 21.8 V 691 – Steward Observatory, Kitt Peak-Spacewatch MPS 692614
2013 10 02.36442 02 59 56.45 +25 26 20.8 21.2 V 691 – Steward Observatory, Kitt Peak-Spacewatch MPS 692614
2013 10 02.38265 02 59 55.62 +25 26 23.2 21.5 V 691 – Steward Observatory, Kitt Peak-Spacewatch MPS 692614
2013 10 14.34955 02 50 37.43 +25 36 53.6 21.3 V 691 – Steward Observatory, Kitt Peak-Spacewatch MPS 692614
2013 10 14.36761 02 50 36.41 +25 36 53.1 21.1 V 691 – Steward Observatory, Kitt Peak-Spacewatch MPS 692614
2013 10 14.38563 02 50 35.47 +25 36 53.1 21.0 V 691 – Steward Observatory, Kitt Peak-Spacewatch MPS 692614
2013 10 31.40576 02 33 42.74 +25 17 51.1 20.9 V G96 – Mt. Lemmon Survey MPS 692614
2013 10 31.41200 02 33 42.38 +25 17 50.7 21.0 V G96 – Mt. Lemmon Survey MPS 692614
2013 10 31.41825 02 33 41.97 +25 17 50.0 20.7 V G96 – Mt. Lemmon Survey MPS 692614
2013 10 31.42449 02 33 41.53 +25 17 49.1 21.4 V G96 – Mt. Lemmon Survey MPS 692614
2014 12 16.45232 07 26 53.043 +37 35 29.84 21.9 w F51 – Pan-STARRS 1, Haleakala MPS 692614
2014 12 16.46536 07 26 52.311 +37 35 32.96 21.4 w F51 – Pan-STARRS 1, Haleakala MPS 692614
2014 12 16.49137 07 26 50.858 +37 35 39.40 21.9 w F51 – Pan-STARRS 1, Haleakala MPS 692614
2015 01 16.38796 06 52 49.244 +38 34 23.24 21.5 w F51 – Pan-STARRS 1, Haleakala MPS 692614
2015 01 16.40018 06 52 48.419 +38 34 22.96 21.7 w F51 – Pan-STARRS 1, Haleakala MPS 692614
2015 01 16.41238 06 52 47.587 +38 34 22.65 21.6 w F51 – Pan-STARRS 1, Haleakala MPS 692614
2015 01 18.36601 06 50 38.218 +38 33 02.81 21.7 w F51 – Pan-STARRS 1, Haleakala MPS 692614
2015 01 18.37864 06 50 37.362 +38 33 02.63 21.6 w F51 – Pan-STARRS 1, Haleakala MPS 692614
2015 01 18.39134 06 50 36.498 +38 33 01.89 21.6 w F51 – Pan-STARRS 1, Haleakala MPS 692614
2016 01 15.60126 13 10 32.433 -04 32 47.59 21.6 w F51 – Pan-STARRS 1, Haleakala MPS 692614
2016 01 15.62720 13 10 33.767 -04 32 59.99 21.7 w F51 – Pan-STARRS 1, Haleakala MPS 692614
2016 01 15.64018 13 10 34.402 -04 33 06.21 21.7 w F51 – Pan-STARRS 1, Haleakala MPS 692614
2016 02 09.63341 13 26 40.852 -07 34 23.54 20.9 w F51 – Pan-STARRS 1, Haleakala MPS 692614
2016 02 09.64140 13 26 41.006 -07 34 26.71 21.0 w F51 – Pan-STARRS 1, Haleakala MPS 692614
2016 02 09.64940 13 26 41.173 -07 34 29.75 20.8 w F51 – Pan-STARRS 1, Haleakala MPS 692614
2016 02 09.65736 13 26 41.335 -07 34 32.81 20.8 w F51 – Pan-STARRS 1, Haleakala MPS 692614
2016 02 20.57536 13 29 09.391 -08 39 31.51 20.2 i F51 – Pan-STARRS 1, Haleakala MPS 692614
2016 02 20.58574 13 29 09.434 -08 39 34.97 20.4 i F51 – Pan-STARRS 1, Haleakala MPS 692614
2016 03 12.49939 13 23 55.589 -10 14 38.64 20.0 w F51 – Pan-STARRS 1, Haleakala MPS 693000
2016 03 12.51209 13 23 55.118 -10 14 41.36 19.9 w F51 – Pan-STARRS 1, Haleakala MPS 693000
2016 03 12.52474 13 23 54.644 -10 14 44.04 19.9 w F51 – Pan-STARRS 1, Haleakala MPS 693000
2016 03 12.53739 13 23 54.165 -10 14 46.73 19.9 w F51 – Pan-STARRS 1, Haleakala MPS 693000
2016 03 14.44956 13 22 44.291 -10 21 17.78 19.8 w F51 – Pan-STARRS 1, Haleakala MPS 693000
2016 03 14.46126 13 22 43.820 -10 21 20.15 19.9 w F51 – Pan-STARRS 1, Haleakala MPS 693000
2016 03 14.47292 13 22 43.338 -10 21 22.57 19.8 w F51 – Pan-STARRS 1, Haleakala MPS 693000
2016 03 19.31141 13 19 17.17 -10 36 09.4 19.3 r G45 – Space Surveillance Telescope, Atom Site MPS 706041
2016 03 19.31589 13 19 16.93 -10 36 12.1 19.9 r G45 – Space Surveillance Telescope, Atom Site MPS 706041
2016 03 19.32047 13 19 16.69 -10 36 11.9 19.9 r G45 – Space Surveillance Telescope, Atom Site MPS 706041
2016 03 19.32502 13 19 16.44 -10 36 13.3 19.9 r G45 – Space Surveillance Telescope, Atom Site MPS 706041
2016 03 29.45772 13 10 08.262 -10 59 24.25 19.4 r F51 – Pan-STARRS 1, Haleakala MPS 695965
2016 03 29.47051 13 10 07.449 -10 59 25.72 19.3 r F51 – Pan-STARRS 1, Haleakala MPS 695965
2016 03 29.48326 13 10 06.635 -10 59 27.11 19.4 r F51 – Pan-STARRS 1, Haleakala MPS 695965
2016 03 30.39845 13 09 10.65 -11 01 03.7 19.8 r G45 – Space Surveillance Telescope, Atom Site MPS 695965
2016 03 30.40370 13 09 10.35 -11 01 04.6 19.3 r G45 – Space Surveillance Telescope, Atom Site MPS 695965
2016 03 30.40936 13 09 09.96 -11 01 05.0 19.2 r G45 – Space Surveillance Telescope, Atom Site MPS 695965
2016 03 30.41448 13 09 09.63 -11 01 05.9 19.3 r G45 – Space Surveillance Telescope, Atom Site MPS 695965
2016 03 30.41994 13 09 09.32 -11 01 06.0 19.5 r G45 – Space Surveillance Telescope, Atom Site MPS 695965
2016 03 31.65252 13 07 53.10 -11 03 06.5 19.0 R D29 – Purple Mountain Observatory, XuYi Station MPS 695965
2016 03 31.66134 13 07 52.56 -11 03 08.2 19.2 R D29 – Purple Mountain Observatory, XuYi Station MPS 695965
2016 03 31.66663 13 07 52.19 -11 03 08.2 19.3 R D29 – Purple Mountain Observatory, XuYi Station MPS 695965
2016 03 31.67545 13 07 51.64 -11 03 10.1 19.9 R D29 – Purple Mountain Observatory, XuYi Station MPS 695965
2016 03 31.68074 13 07 51.27 -11 03 09.7 19.3 R D29 – Purple Mountain Observatory, XuYi Station MPS 695965
2016 04 02.27221 13 06 10.53 -11 05 34.3 19.5 r G45 – Space Surveillance Telescope, Atom Site MPS 698725
2016 04 02.27683 13 06 10.22 -11 05 35.2 19.8 r G45 – Space Surveillance Telescope, Atom Site MPS 698725
2016 04 02.28131 13 06 09.92 -11 05 35.5 19.1 r G45 – Space Surveillance Telescope, Atom Site MPS 698725
2016 04 02.28579 13 06 09.61 -11 05 35.6 19.7 r G45 – Space Surveillance Telescope, Atom Site MPS 698725
2016 04 02.29030 13 06 09.32 -11 05 36.2 19.6 r G45 – Space Surveillance Telescope, Atom Site MPS 698725
2016 04 02.35820 13 06 04.80 -11 05 41.6 19.3 V G96 – Mt. Lemmon Survey MPS 698725
2016 04 02.36546 13 06 04.35 -11 05 42.2 19.2 V G96 – Mt. Lemmon Survey MPS 698725
2016 04 02.37272 13 06 03.83 -11 05 43.3 19.3 V G96 – Mt. Lemmon Survey MPS 698725
2016 04 02.37999 13 06 03.37 -11 05 43.8 19.4 V G96 – Mt. Lemmon Survey MPS 698725
2016 04 02.39824 13 06 02.16 -11 05 45.4 19.5 r G45 – Space Surveillance Telescope, Atom Site MPS 698725
2016 04 02.40384 13 06 01.76 -11 05 45.5 19.5 r G45 – Space Surveillance Telescope, Atom Site MPS 698725
2016 04 02.40912 13 06 01.40 -11 05 46.6 19.9 r G45 – Space Surveillance Telescope, Atom Site MPS 698725
2016 04 02.41438 13 06 01.05 -11 05 46.7 19.7 r G45 – Space Surveillance Telescope, Atom Site MPS 698725
2016 04 02.41974 13 06 00.70 -11 05 47.0 19.7 r G45 – Space Surveillance Telescope, Atom Site MPS 698725
2016 04 03.40277 13 04 57.40 -11 07 09.2 19.6 r G45 – Space Surveillance Telescope, Atom Site MPS 701185
2016 04 03.40826 13 04 57.04 -11 07 09.6 19.8 r G45 – Space Surveillance Telescope, Atom Site MPS 701185
2016 04 03.41358 13 04 56.68 -11 07 10.1 19.1 r G45 – Space Surveillance Telescope, Atom Site MPS 701185
